Weather Roundup
Issued by NWS Corpus Christi, TX

Home | Current Version | Previous Version | Text Only | Print | Product List | Glossary On
Versions: 1 2 3 4 5 6 7 8 9 10 11 12 13 14 15 16 17 18 19 20 21 22 23 24 25 26 27 28 29 30 31 32 33 34 35 36 37 38 39 40 41 42 43 44 45 46 47 48 49 50
000
ASUS44 KCRP 282010
HRRCRP

SOUTH TEXAS REGIONAL WEATHER ROUNDUP
NATIONAL WEATHER SERVICE CORPUS CHRISTI TX
200 PM CST SAT FEB 28 2015


TXZ229>244-282100-
...CORPUS CHRISTI AREA OBSERVATIONS...

CITY           SKY/WX    TMP DP  RH WIND       PRES   REMARKS
CORPUS CHRISTI LGT RAIN  55  54  96 N9        30.15F FOG
NAS CORPUS CHR CLOUDY    55  32  41 NW12      30.13F FOG
ROCKPORT       LGT RAIN  58  56  93 NE10      30.13F FOG
KINGSVILLE NAS LGT RAIN  51  51 100 NW13      30.16F FOG
ALICE          CLOUDY    48  45  89 NW10      30.17F FOG
FALFURRIAS     CLOUDY    47  45  91 NW8       30.17F
$$

...VICTORIA AREA OBSERVATIONS...

CITY           SKY/WX    TMP DP  RH WIND       PRES   REMARKS
VICTORIA       LGT RAIN  51  50  96 NE9       30.18F FOG
BEEVILLE       DRIZZLE   49  49 100 N5        30.17F
PLEASANTON     CLOUDY    39  38  95 N7        30.23F FOG
SAN ANTONIO    LGT RAIN  38  36  92 N8        30.22F VSB 1
$$

...LAREDO AREA OBSERVATIONS...

CITY           SKY/WX    TMP DP  RH WIND       PRES   REMARKS
LAREDO         CLOUDY    42  40  93 N10       30.22F FOG
COTULLA        CLOUDY    42  39  89 N7        30.21F FOG
DEL RIO        CLOUDY    42  37  82 E6        30.20F
MCALLEN        CLOUDY    46  43  89 NW9       30.18F FOG
HEBBRONVILLE   RAIN     N/A N/A N/A NW12      30.18F
$$

...OTHER TEXAS OBSERVATIONS...

CITY           SKY/WX    TMP DP  RH WIND       PRES   REMARKS
BROWNSVILLE    LGT RAIN  50  48  93 NW12      30.14F FOG
HOUSTON        CLOUDY    54  41  61 E9        30.25F
COL. STATION   CLOUDY    47  34  60 E6        30.25F
AUSTIN         DRIZZLE   37  37 100 N10       30.25F FOG     WCI  30
WACO           LGT RAIN  33  31  92 N10       30.29F WCI  25
FORT WORTH     CLOUDY    30  27  88 E8        30.31F
WICHITA FALLS  CLOUDY    27  24  89 CALM      30.32F
LUBBOCK        CLOUDY    21  19  92 S8        30.13F FOG
EL PASO        MOSUNNY   53  28  38 SE7       29.95F
$$

...MARINE OBSERVATIONS...

STATION/POSITION TIME  SKY/WX   TEMP    WIND        PRES    VSBY  WAVE   SWELL
                                AIR SEA DIR/SP/G                  HT/PER HT/PER
                 (UTC)          (F)     (DEG/KT/KT) (MB)    (MI)  (FT/S) (FT/S)
PORT ARANSAS     2000            61 55  110/  4/  6 1020.3F
BUOY 90 E PORT A 2000            67 67  100/ 21/ 25 1020.5F         9/ 9   5/ 9
BUOY 45 SE BAFFI 2000            59 69  270/ 12/ 14 1019.7F         9/ 9   8/ 9
BUOY 200 E PT IS 2000            71 70  110/ 17/ 21 1019.4F         9/ 8
BUOY 15 E GALVES 2000            55 56   80/ 17/ 21 1022.9F         6/ 8   2/ 8
$$


USA.gov is the U.S. government's official web portal to all federal, state and local government web resources and services.